METEOR 2-7 DEB, 59993

Orbit data source: Space-Track

METEOR 2-7 DEB, 59993 is space debris in LEO originally from a launch on Thu, 14 May 1981 UTC launched from the Plesetsk Missile And Space Complex (PKMTR). Debris objects in space refer to the collection of defunct objects orbiting the Earth. Examples of debris include non-operational satellites, rocket bodies, and fragments generated from explosions, collisions, or faulty payload assembly.

Loading next visibility...
Identifier
59993, 1981-043AB
Orbit
LEO
Country
Flag of CISCIS
Related business
Manufacturer
Unknown
Mission
Spacecraft
Bus & Motor
Unknown
Mass
Unknown
Launch date (UTC)
1981-05-14 (44 years ago)
Launch vehicle
Unknown
Launch site
Plesetsk Missile And Space Complex (PKMTR)
Object type
Payload
Rocket body
Debris
Shape & HBR
Unknown
Radar Cross Section
Small (<0.1 m²)

Expand to show TLE details & history
Last TLE update: 1 year ago

TLE from 1 year ago
0 METEOR 2-7 DEB
1 59993U 81043AB  24130.65328582  .00007853  00000-0  35089-2 0  9990
2 59993  81.2617 107.4372 0046605  99.7047 260.9399 14.22000615444778
Epoch: 2024-05-09T15:40Z
TLE epoch observation values (Epoch: 2024-05-09T15:40:43.894Z)
Latitude
-0.00006°
Longitude
4.30925°
Altitude
826.946 km
Speed
7.437 km/s
True Right ascension
07h 09m 44s
True Declination
0° 00' 00"
Sunlit
Object was in daylight at epoch
Visualization orbit readout
Latitude
Unknown
Longitude
Unknown
Altitude
Unknown
Speed
Unknown
Apparent Right ascension
Unknown
Apparent Declination
Unknown
Sunlit
N/A
Visualization observer readout
Local Sidereal Time
00:40:42
Azimuth
Unknown
Elevation
Unknown
Doppler factor
Unknown
Orbital elements
Apogee altitude
849.279 km
Perigee altitude
782.225 km
Semi-major axis
7,193.889 km
Eccentricity
0.00466
Inclination
81.2617°
RAAN
107.4372°
Arg. of periapsis
99.7047°
True anomaly
260.413°
Mean anomaly
260.9399°
Eccentric anomaly
260.6764°
Mean motion
3.55711 °/min
Orbital period
101.21 mins
BSTAR
0.0035089
Loading maneuver chart data...
Computing Atmospheric mass density...
Loading historical data...
Loading historical data...
Loading historical data...
Loading historical data...
Loading historical data...
Loading historical data...
Loading historical data...

Documentation

Showing up to 5 results
|